San Jose, Costa Rica

3:59 PM CST on April 21, 2018 (GMT -0600)
Juan Santamaria International

Weather History for MROC - January, 2009

Change the Weather History Date:

Saturday, January 10, 2009

  Actual Average Record
Temperature  
Mean Temperature 75 °F -  
Max Temperature 82 °F 80 °F 86 °F (1997)
Min Temperature 68 °F 63 °F 60 °F (1997)
Cooling Degree Days 10    
Growing Degree Days 25 (Base 50)    
Moisture  
Dew Point 52 °F    
Average Humidity 47    
Maximum Humidity 73    
Minimum Humidity 12    
Precipitation  
Precipitation 0.00 in 0.01 in - ()
Sea Level Pressure  
Sea Level Pressure 29.98 in    
Wind  
Wind Speed 11 mph ()    
Max Wind Speed 17 mph    
Max Gust Speed 24 mph    
Visibility 8.2 miles    
Events      
Averages and records for this station are not official NWS values.
T = Trace of Precipitation, MM = Missing Value Source: Averaged Metar Reports

Daily Weather History Graph

Daily Weather History Graph

Search for Another Location

Airport or City:

Astronomy

Jan. 10, 2009 Rise Set
Actual Time 5:57 AM CST 5:32 PM CST
Civil Twilight 5:34 AM CST 5:54 PM CST
Nautical Twilight 5:08 AM CST 6:20 PM CST
Astronomical Twilight 4:42 AM CST 6:46 PM CST
Moon 5:18 PM CST (1/10) 5:23 AM CST (1/10)
Length of Visible Light 12h 20m
Length of Day
11h 35m
Full, 100% of the Moon is Illuminated
Jan 10
Full
Jan 10
Full
Jan 17
Last Quarter
Jan 26
New
Feb 2
First Quarter

Hourly Weather History & Observations

Time (CST) Temp. Heat Index Dew Point Humidity Pressure Visibility Wind Dir Wind Speed Gust Speed Precip Events Conditions
12:00 AM 70 °F - 54 °F 46% 29.86 in 12 mi East 11.5 mph - -  
12:00 AM 69.8 °F - 53.6 °F 56% 30.03 in 6.2 mi East 11.5 mph - N/A   Clear
1:00 AM 69.8 °F - 51.8 °F 53% 30.00 in 6.2 mi East 12.7 mph 24.2 mph N/A   Partly Cloudy
2:00 AM 69.8 °F - 50.0 °F 49% 29.99 in 6.2 mi East 13.8 mph - N/A   Scattered Clouds
3:00 AM 70 °F - 50 °F 38% 29.83 in 12 mi East 12.7 mph - -   Partly Cloudy
3:00 AM 69.8 °F - 50.0 °F 49% 29.99 in 6.2 mi East 12.7 mph - N/A   Scattered Clouds
4:00 AM 69.8 °F - 50.0 °F 49% 30.00 in 6.2 mi East 13.8 mph - N/A   Scattered Clouds
5:00 AM 69.8 °F - 48.2 °F 46% 30.00 in - East 11.5 mph 23.0 mph N/A   Clear
6:00 AM 70 °F - 50 °F 38% 29.86 in 12 mi East 12.7 mph - -   Mostly Cloudy
6:00 AM 69.8 °F - 50.0 °F 49% 30.02 in - East 12.7 mph - N/A   Clear
7:00 AM 71.6 °F - 50.0 °F 46% 30.03 in - East 11.5 mph - N/A   Clear
8:00 AM 73.4 °F - 50.0 °F 44% 30.06 in - East 15.0 mph - N/A   Clear
9:00 AM 75 °F - 33 °F 12% 29.94 in 12 mi Calm Calm - -   Clear
9:00 AM 75.2 °F - 44.6 °F 34% 30.06 in - East 17.3 mph - N/A   Clear
10:00 AM 78.8 °F - 42.8 °F 28% 30.05 in - East 15.0 mph - N/A   Clear
11:00 AM 80.6 °F - 50.0 °F 34% 30.02 in - East 15.0 mph - N/A   Clear
12:00 PM 81 °F - 52 °F 26% 29.86 in 12 mi Calm Calm - -   Clear
12:00 PM 80.6 °F - 51.8 °F 37% 30.00 in - East 11.5 mph - N/A   Clear
1:00 PM 80.6 °F - 51.8 °F 37% 29.98 in - East 12.7 mph - N/A   Clear
2:00 PM 80.6 °F 80.3 °F 53.6 °F 39% 29.96 in 6.2 mi East 15.0 mph - N/A   Scattered Clouds
3:00 PM 80.6 °F 80.5 °F 55.4 °F 42% 29.95 in 6.2 mi East 11.5 mph - N/A   Partly Cloudy
4:00 PM 78.8 °F - 57.2 °F 47% 29.95 in 6.2 mi East 9.2 mph - N/A   Partly Cloudy
5:00 PM 78.8 °F - 57.2 °F 47% 29.95 in 6.2 mi East 9.2 mph - N/A   Scattered Clouds
6:00 PM 70 °F - 59 °F 60% 29.83 in 12 mi East 11.5 mph - -   Scattered Clouds
6:00 PM 69.8 °F - 59.0 °F 68% 29.99 in 6.2 mi East 11.5 mph - N/A   Partly Cloudy
7:00 PM 69.8 °F - 57.2 °F 64% 30.01 in - ESE 12.7 mph - N/A   Clear
8:00 PM 69.8 °F - 57.2 °F 64% 30.03 in - East 11.5 mph - N/A   Clear
9:00 PM 68.0 °F - 59.0 °F 73% 30.05 in - East 9.2 mph - N/A   Clear
10:00 PM 68.0 °F - 57.2 °F 68% 30.04 in - East 13.8 mph - N/A   Clear
11:00 PM 68.0 °F - 59.0 °F 73% 30.03 in 6.2 mi East 15.0 mph - N/A   Unknown